^^
Meteo Knjazevac Station Historical Data
Daily Summary for May 1, 2021 Units:  English    Metric   Both
Daily Weekly Monthly Yearly Custom
  High: Low: Average:
Temperature: 58.3 °F 53.1 °F 56.7 °F
Dew Point: 50 °F 48.4 °F 49.3 °F
Humidity: 84% 73% 76%
Wind Speed: 5mph 0mph 2.3mph
Wind Gust: 10mph - -
Wind- - SW
Pressure: 30.34 in 30.34 in -
Precipitation: 0.00 in    
Historical Graphs
 
 
Tabular Data for May 1, 2021
Time Temperature Dew Point Pressure Wind Wind Speed Wind Gust Humidity Rainfall Rate (Hourly) solar Conditions
00:00 58.3 °F 50 °F 30.34 in North 2 mph 7 mph 74% 0.00 in 0 W/m2
00:10 58.3 °F 50 °F 30.34 in North 3 mph 8 mph 74% 0.00 in 0 W/m2
00:20 58.1 °F 49.9 °F 30.34 in North 5 mph 8 mph 74% 0.00 in 0 W/m2
00:30 58.1 °F 49.9 °F 30.34 in North 3 mph 6 mph 74% 0.00 in 0 W/m2
00:40 58.1 °F 49.5 °F 30.34 in North 3 mph 8 mph 73% 0.00 in 0 W/m2
00:50 58.1 °F 49.5 °F 30.34 in North 5 mph 8 mph 73% 0.00 in 0 W/m2
01:00 57.9 °F 49.3 °F 30.34 in North 3 mph 7 mph 73% 0.00 in 0 W/m2
01:10 57.9 °F 49.7 °F 30.34 in North 2 mph 6 mph 74% 0.00 in 0 W/m2
01:20 57.7 °F 49.1 °F 30.34 in North 5 mph 7 mph 73% 0.00 in 0 W/m2
01:30 57.6 °F 49 °F 30.34 in North 3 mph 8 mph 73% 0.00 in 0 W/m2
01:40 57.4 °F 49.2 °F 30.34 in NNW 2 mph 10 mph 74% 0.00 in 0 W/m2
01:50 57.2 °F 49 °F 30.34 in NNW 1 mph 6 mph 74% 0.00 in 0 W/m2
02:00 57 °F 49.2 °F 30.34 in NNW 2 mph 5 mph 75% 0.00 in 0 W/m2
02:10 56.8 °F 49 °F 30.34 in North 1 mph 5 mph 75% 0.00 in 0 W/m2
02:20 56.5 °F 49.3 °F 30.34 in North 1 mph 5 mph 77% 0.00 in 0 W/m2
02:30 55.8 °F 49.3 °F 30.34 in East 2 mph 4 mph 79% 0.00 in 0 W/m2
02:40 55 °F 49 °F 30.34 in SSE 1 mph 3 mph 80% 0.00 in 0 W/m2
02:50 54.3 °F 48.6 °F 30.34 in SSE 2 mph 4 mph 81% 0.00 in 0 W/m2
03:00 54 °F 48.9 °F 30.34 in SSE 1 mph 3 mph 83% 0.00 in 0 W/m2
03:10 53.6 °F 48.5 °F 30.34 in South 1 mph 2 mph 83% 0.00 in 0 W/m2
03:20 53.1 °F 48.4 °F 30.34 in Calm   2 mph 84% 0.00 in 0 W/m2
Knjazevac, Serbia
Compliments of Weather Underground - 2 mb